Weather History for Indianapolis, IN

Change the Weather History Date:

Friday, May 11, 2012

  Actual Average Record
Temperature  
Mean Temperature 61 °F 61 °F  
Max Temperature 75 °F 71 °F 89 °F (1896)
Min Temperature 47 °F 51 °F 31 °F (1945)
Degree Days  
Heating Degree Days 4 5  
Month to date heating degree days 24 71  
Since 1 July heating degree days 4096 5293  
Cooling Degree Days 0 2  
Month to date cooling degree days 48 12  
Year to date cooling degree days 103 27  
Growing Degree Days 10 (Base 50)    
Moisture  
Dew Point 41 °F    
Average Humidity 54    
Maximum Humidity 76    
Minimum Humidity 31    
Precipitation  
Precipitation 0.00 in 0.17 in 1.95 in (1905)
Month to date precipitation 2.10 1.76  
Year to date precipitation 14.46 14.11  
Snow  
Snow 0.00 in 0.00 in T in (1966)
Month to date snowfall 0.0 0.0  
Since 1 July snowfall 9.8 25.9  
Snow Depth 0.00 in    
Sea Level Pressure  
Sea Level Pressure 30.13 in    
Wind  
Wind Speed 4 mph (SSE)    
Max Wind Speed 9 mph    
Max Gust Speed 13 mph    
Visibility 10 miles    
Events      
T = Trace of Precipitation, MM = Missing Value Source: NWS Daily Summary

Daily Weather History Graph

Daily Weather History Graph

Search for Another Location

Airport:

Trip Planner

Search our weather history database for the weather conditions in past years. The results will help you decide how hot, cold, wet, or windy it might be!

Date:

Astronomy

May. 11, 2012 Rise Set
Actual Time 6:34 AM EDT 8:49 PM EDT
Civil Twilight 6:03 AM EDT 9:19 PM EDT
Nautical Twilight 5:26 AM EDT 9:57 PM EDT
Astronomical Twilight 4:46 AM EDT 10:38 PM EDT
Moon 1:29 AM EDT (5/11) 12:05 PM EDT (5/11)
Length of Visible Light 15h 15m
Length of Day
14h 15m
Waning Gibbous, 63% of the Moon is Illuminated
May 11
Waning Gibbous
May 12
Last Quarter
May 20
New
May 28
First Quarter
Jun 4
Full

Hourly Weather History & Observations

Time (EDT) Temp. Dew Point Humidity Pressure Visibility Wind Dir Wind Speed Gust Speed Precip Events Conditions
12:54 AM 55.9 °F 35.1 °F 45% 30.04 in 10.0 mi NNE 3.5 mph - N/A   Clear
1:54 AM 52.0 °F 35.1 °F 53% 30.05 in 10.0 mi Calm Calm - N/A   Clear
2:54 AM 48.9 °F 39.9 °F 71% 30.06 in 10.0 mi Calm Calm - N/A   Clear
3:54 AM 48.9 °F 39.9 °F 71% 30.07 in 10.0 mi Calm Calm - N/A   Clear
4:54 AM 46.9 °F 39.0 °F 74% 30.08 in 10.0 mi Calm Calm - N/A   Clear
5:54 AM 48.0 °F 36.0 °F 63% 30.09 in 10.0 mi NE 4.6 mph - N/A   Clear
6:54 AM 48.0 °F 39.0 °F 71% 30.11 in 10.0 mi NE 5.8 mph - N/A   Clear
7:54 AM 52.0 °F 42.1 °F 69% 30.14 in 10.0 mi Calm Calm - N/A   Clear
8:54 AM 57.0 °F 43.0 °F 59% 30.14 in 10.0 mi SE 5.8 mph - N/A   Clear
9:54 AM 61.0 °F 44.1 °F 54% 30.14 in 10.0 mi South 6.9 mph - N/A   Clear
10:54 AM 64.9 °F 44.1 °F 47% 30.16 in 10.0 mi SSE 8.1 mph - N/A   Clear
11:54 AM 68.0 °F 42.1 °F 39% 30.17 in 10.0 mi SSE 4.6 mph - N/A   Clear
12:54 PM 69.1 °F 41.0 °F 36% 30.17 in 10.0 mi SSE 4.6 mph - N/A   Clear
1:54 PM 71.1 °F 42.1 °F 35% 30.16 in 10.0 mi SW 5.8 mph - N/A   Partly Cloudy
2:54 PM 72.0 °F 39.9 °F 31% 30.15 in 10.0 mi Variable 4.6 mph - N/A   Partly Cloudy
3:54 PM 72.0 °F 39.0 °F 30% 30.15 in 10.0 mi WSW 3.5 mph - N/A   Scattered Clouds
4:54 PM 72.0 °F 39.9 °F 31% 30.14 in 10.0 mi Calm Calm - N/A   Mostly Cloudy
5:54 PM 72.0 °F 41.0 °F 33% 30.14 in 10.0 mi SW 4.6 mph - N/A   Mostly Cloudy
6:54 PM 71.1 °F 45.0 °F 39% 30.14 in 10.0 mi Variable 3.5 mph - N/A   Mostly Cloudy
7:54 PM 69.1 °F 43.0 °F 39% 30.13 in 10.0 mi SSE 5.8 mph - N/A   Mostly Cloudy
8:54 PM 66.0 °F 44.1 °F 45% 30.14 in 10.0 mi South 6.9 mph - N/A   Mostly Cloudy
9:54 PM 64.0 °F 45.0 °F 50% 30.14 in 10.0 mi South 6.9 mph - N/A   Mostly Cloudy
10:54 PM 62.1 °F 46.0 °F 56% 30.15 in 10.0 mi South 5.8 mph - N/A   Mostly Cloudy
11:54 PM 62.1 °F 46.0 °F 56% 30.16 in 10.0 mi Calm Calm - N/A   Mostly Cloudy